Find Starlink 1333

NORAD ID: 45580 Int'l Des: 2020-025 Owner: SPXS Country: US Constellation: starlink operational
LEOCIRCULAR

实时位置

正在加载3D地球...

关于 Starlink 1333

正在加载描述...

即将过境

Passes for default location (London). Set your location on the main map for personalized predictions.

高度历史

Loading altitude history...

两行轨道根数

1 45580U 20025BB 26106.70444720 .00031283 00000-0 10428-2 0 9998
2 45580 53.1572 261.2109 0000838 51.5182 308.5894 15.30849116331326
Epoch: Apr 16, 2026 • Age: 18 hours

当前状态

高度 474.9 km
速度 7.63 km/s
星下点 30.63°N, 44.68°E
发射日期 Apr 22, 2020
运行时间 5.9 years
类型 internet

技术详情

分类 Payload
质量 260.00 kg
干质量 248.00 kg
总质量 260.00 kg
长度 0.20 m
直径 2.80 m
跨度 9.00 m
形状 Box + pan
制造商 SPXS
平台类型 Starlink
阶段状态 In Orbit
所有者/国家 SPXS/US

Most Searched